Terminal Aerodrome Forecast
Issued by NWS

Home | Current Version | Previous Version | Text Only | Print | Product List | Glossary On
Versions: 1 2 3 4 5 6 7 8 9 10 11 12 13 14 15 16 17 18
000
FTUS41 KGYX 292116 AAA
TAFLEB
TAF AMD
KLEB 292116Z 2921/3018 13006KT P6SM OVC025
      TEMPO 2921/2924 -SHRA BKN015 OVC025
     FM300200 VRB03KT 5SM -DZ BR OVC007
     FM301100 19008KT 5SM SHRA BR OVC010 WS015/23025KT
     FM301600 24008KT 6SM HZ BKN035=

USA.gov is the U.S. government's official web portal to all federal, state and local government web resources and services.